Regional Weather Roundup
Issued by NWS

Home | Current Version | Previous Version | Text Only | Print | Product List | Glossary On
Versions: 1 2 3 4 5 6 7 8 9 10 11 12 13 14 15 16 17 18 19 20 21 22 23 24 25 26 27 28 29 30 31 32 33 34 35 36 37 38 39 40 41 42 43 44 45 46 47 48 49 50
000
ASHW40 PHFO 300030
RWRHI

WEATHER ROUNDUP FOR HAWAII
NATIONAL WEATHER SERVICE HONOLULU HI
200 PM HST FRI AUG 29 2014

THIS IS AN AUTOMATED REPORT THAT HAS NOT BEEN QUALITY CONTROLLED.

NOTE..."FAIR" INDICATES FEW OR NO CLOUDS BELOW 12,000 FEET WITH NO
SIGNIFICANT WEATHER AND/OR OBSTRUCTIONS TO VISIBILITY.

* - THESE SITES REPORT LIMITED FIELDS

HIZ001>004-300100-
KAUAI-NIIHAU-

CITY           SKY/WX    TMP DP  RH WIND       PRES   REMARKS
LIHUE APT      MOSUNNY   84  69  60 NE10      29.93F
PORT ALLEN*      N/A     84 N/A N/A W9G15       N/A
POIPU*           N/A     84 N/A N/A NE9G17      N/A
PRINCEVILLE*   NOT AVBL
KOKOLE POINT*    N/A     84  66  54 MISG        N/A
MOLOAA DAIRY*  NOT AVBL
WAIMEA HTS*    NOT AVBL
PUU OPAE*      NOT AVBL
PUU LUA*       NOT AVBL
MAKAHA RIDGE*  NOT AVBL
$$

HIZ005>011-300100-
OAHU-

CITY           SKY/WX    TMP DP  RH WIND       PRES   REMARKS
HONOLULU       PTSUNNY   89  62  40 NE12G18   29.88F
KALAELOA       MOSUNNY   87  69  54 W12G20    29.90F HX  91
KANEOHE MCB    MOSUNNY   84  70  62 NE9       29.91F
WHEELER FIELD  FAIR      84  64  50 NE14      29.90F
BELLOWS*         N/A    N/A N/A N/A NE12        N/A
KAHUKU*          N/A    N/A N/A N/A NE7G14      N/A
WHEELER*       NOT AVBL
WAIANAE HARBOR NOT AVBL
DILLINGHAM*      N/A     93  70  46 N3G16       N/A  HX  99
KAHUKU TRN*      N/A     82  70  65 E8G17       N/A
KAWAILOA*      NOT AVBL
KII*             N/A     82  72  69 E12         N/A
MAKUA RANGE*     N/A     82  70  65 SW6G14      N/A
OAHU FOREST NW NOT AVBL
SCHOFIELD BRK*   N/A     82  63  51 MISG        N/A
SCHOFIELD S*   NOT AVBL
WAIANAE VLY*   NOT AVBL
KUAOKALA*      NOT AVBL
HONOULIUULI*   NOT AVBL
MOKUOLOE IS*     N/A    N/A N/A N/A MISG        N/A
PALEHUA*       NOT AVBL
WAIAWA PHB*    NOT AVBL
$$

HIZ012>013-300100-
MOLOKAI-

CITY           SKY/WX    TMP DP  RH WIND       PRES   REMARKS
MOLOKAI AIRPT  MOSUNNY   83  72  69 NE14G22   29.91F
KALAUPAPA      NOT AVBL
MAKAPULAPAI*   NOT AVBL
MOLOKAI 1*     NOT AVBL
PUU ALII*        N/A     63  62  96 VRB1        N/A
$$

HIZ016-300100-
KAHOOLAWE-

CITY           SKY/WX    TMP DP  RH WIND       PRES   REMARKS
KAHOOLAWE*     NOT AVBL
HAKIOAWA*      NOT AVBL
HONOKANAIA*      N/A     84  69  60 E13G22      N/A
KANELOA*         N/A     79  72  78 E14G22    30.01S
KEALIALALO*    NOT AVBL
LUA MAKIKA*    NOT AVBL
$$

HIZ014>015-300100-
LANAI-

CITY           SKY/WX    TMP DP  RH WIND       PRES   REMARKS
LANAI CITY     CLOUDY    78  69  73 W5        29.96S
LANAI 1*       NOT AVBL
$$

HIZ017>028-300100-
MAUI-

CITY           SKY/WX    TMP DP  RH WIND       PRES   REMARKS
KAHULUI        MOSUNNY   87  70  56 NE17      29.90S HX  92
KAPALUA-W MAUI MOSUNNY   86  70  58 N20       29.90  HX  90
HANA AIRPORT   PTSUNNY   82  72  69 NW2       29.93S
HANA*            N/A     81 N/A N/A NW2         N/A
HALEAKALA SUMM   N/A     52  46  82 E10         N/A
MAALAEA BAY*   NOT AVBL
HALEAKALA*     NOT AVBL
KAUPO GAP*     NOT AVBL
KULA 1*          N/A     59  57  94 W6G13       N/A
$$

HIZ023>026-300100-
BIG ISLAND OF HAWAII COAST AND LOWER SLOPES-

CITY           SKY/WX    TMP DP  RH WIND       PRES   REMARKS
KAILUA KONA    MOSUNNY   85  71  63 SW10      29.87F HX  90
HILO           MOSUNNY   85  70  60 N9        29.89S
HONOKAA*       NOT AVBL
KAWAIHAE MWT*    N/A     90 N/A N/A S8          N/A
KAWAIHAE*        N/A     82 N/A N/A SW13        N/A
SOUTH POINT*     N/A     77 N/A N/A E7          N/A
UPOLU AIRPORT*   N/A    N/A N/A N/A NE16        N/A
KAMUELA*       MOCLDY    77  63  61 N10       30.01S
HAKALAU*         N/A     64  57  79 NE6G12      N/A
KALOKO-HONOKO*   N/A     86  72  62 SW8       29.87S HX  92
PALI 2*          N/A     68  68 100 S3G14       N/A
KEALAKOMO*     NOT AVBL
KAUPULEHU*     NOT AVBL
KAPAPALA*        N/A     70  67  91 CALM        N/A
LOWER KAHUKU*  NOT AVBL
PUHE CS*       NOT AVBL
PUHO CS*         N/A     77  68  72 NE2         N/A
PTA KEAMUKU*     N/A    N/A N/A N/A N14G24      N/A
WAIKOLOA*      NOT AVBL
$$

HIZ027>028-300100-
BIG ISLAND OF HAWAII INTERIOR AND SUMMMITS-

CITY           SKY/WX    TMP DP  RH WIND       PRES   REMARKS
BRADSHAW FIELD CLOUDY    66  55  68 W6G16     30.22S
MK VISITOR CEN NOT AVBL
MAUNA KEA*       N/A     52   5  15 N14         N/A
MAUNA LOA*       N/A     52  39  62 MISG        N/A
MAUNA LOA 1*   NOT AVBL
PTA KIPUKA*      N/A     72  57  60 N12G18      N/A
PTA RANGE 17*    N/A     68  57  68 NW14G25     N/A
PTA WEST*        N/A     68  63  83 N12G24      N/A
NENE CABIN*    NOT AVBL
AHUMOA*        NOT AVBL
PTA PORTABLE*  NOT AVBL
PUU MALI*      NOT AVBL
$$

HIC003-300100-
NORTHWEST ISLANDS-

CITY           SKY/WX    TMP DP  RH WIND       PRES   REMARKS
MIDWAY ISLAND  MOSUNNY   90  72  55 E15       30.02F HX  96
MIDWAY NOS*    NOT AVBL
FRENCH FRIGATE NOT AVBL
$$

PHZ110>124-180-300100-
BUOY REPORTS

STATION/POSITION TIME  TEMP    WIND        PRES    WAVE   SWELL
                       AIR SEA DIR/SP/G            HT/PER HT/DIR
                 (UTC) (F)     (DEG/KT/KT) (MB)    (FT/S) (FT/D)
BUOY 51001       NOT AVBL
BUOY 51101       NOT AVBL
BUOY 51100       0000   79 80   80/ 10/ 12 1012.7F
BUOY 51003       0000   81 82   50/  8/ 10 1012.5F   6/14   5
BUOY 51004       NOT AVBL
BARBERS PT BUOY  NOT AVBL
WAIMEA BAY BUOY  0000      81                N/A     4/10   2/300
KAILUA BAY BUOY  0000      81                N/A     5/17   3/ 90
LANAI BUOY       NOT AVBL
BARBERS PT 2     0000      81                N/A     4/14   3/190
PAUWELA MAUI     0000      81                N/A     6/15   3/ 80
HILO             NOT AVBL
KANEOHE BAY BUOY 0000      82                N/A     5/14   2/ 60
HANALEI KAUAI    NOT AVBL
KAHULUI HARBOR   0000   80 82   20/ 11/ 14 1012.3F
HONOLULU HARBOR  0000   85      60/  8/ 12 1012.2F
KILO NALU        NOT AVBL
HILO HARBOR      0000   83      30/ 11/ 13 1011.6F
MOKUOLOE         0000      83              1013.0F
NAWILIWILI       0000      84                N/A
WHOTS BUOY       NOT AVBL
BUOY 51028       NOT AVBL
$$

......................KEY........................................
  SKY/WX - SKY CONDITIONS/PRESENT WEATHER
  TMP    - TEMPERATURE IN FAHRENHEIT
  DWPT   - DEWPOINT IN FAHRENHEIT
  RH     - RELATIVE HUMIDITY IN PERCENT
  WIND   - DIRECTION AND SPEED /MPH FOR ISLANDS...KTS FOR BUOYS/
  PRES   - MEAN SEA LEVEL PRESSURE IN INCHES OF HG
  VSB    - VISIBILITY IN MILES
  HX     - HEAT INDEX
  WCI    - WIND CHILL INDEX
  VRB    - VARIABLE WIND DIRECTION
  N/A    - NOT AVAILABLE



USA.gov is the U.S. government's official web portal to all federal, state and local government web resources and services.